Location: ?????????
(41.2393°N, 22.9479°E)
Time: 20:40:42
(UTC+00:00)

Aureole 3 Rocket - Pass Details

Date: 17 November 2025
Orbit: 398 x 1690 km, 82.5° (Epoch: 11 December)

Event Time Altitude Azimuth Distance (km) Brightness Sun altitude
Rises 16:07:34 0° 179° (S) 2,387 6.3 -11.5°
Reaches altitude 10° 16:09:38 10° 176° (S) 1,469 5.1 -11.8°
Maximum altitude 16:12:39 59° 95° (E) 469 2.1 -12.4°
Drops below altitude 10° 16:15:42 10° 15° (NNE) 1,490 4.7 -12.9°
Enters shadow 16:16:45 - 13° (NNE) 1,949 5.4 -13.1°
